SPAINSAT

Last updated on Sat Apr 13 2024 01:02:37 GMT+0100 (British Summer Time)

1 28945U 06007A 24102.52711290 -.00000223 00000+0 00000+0 0 9993 2 28945 0.0233 233.1578 0002305 124.7858 2.0482 1.00271733 66239
UTC large
Height (km)
Speed (km/s)
/
Latitude / Longitude
Inclination (degrees)
Orbital Period (minutes)
Azimuth
Elevation
Range (km)
Doppler Factor

Next 0 passes for location: London (51.5072 / 0.1276)

Sorry there are no passes over London.